TimeEST,TemperatureF,Dew PointF,Humidity,Sea Level PressureIn,VisibilityMPH,Wind Direction,Wind SpeedMPH,Gust SpeedMPH,PrecipitationIn,Events,Conditions,WindDirDegrees,DateUTC
12:53 AM,59.0,57.0,93,29.81,3.0,SSW,9.2,-,N/A,,Overcast,200,2013-12-21 05:53:00
1:42 AM,59.0,57.2,94,29.80,10.0,SSW,10.4,-,0.02,Rain,Light Rain,210,2013-12-21 06:42:00
1:53 AM,59.0,57.0,93,29.80,9.0,SSW,9.2,-,0.02,,Overcast,210,2013-12-21 06:53:00
2:53 AM,57.9,57.0,97,29.80,6.0,South,9.2,-,0.03,Rain,Light Rain,190,2013-12-21 07:53:00
3:43 AM,57.2,57.2,100,29.79,2.0,South,13.8,-,0.11,Rain,Heavy Rain,190,2013-12-21 08:43:00
3:53 AM,57.9,57.0,97,29.79,5.0,South,13.8,20.7,0.12,Rain,Light Rain,190,2013-12-21 08:53:00
4:53 AM,57.0,55.9,96,29.78,4.0,South,12.7,-,0.09,Rain,Light Rain,180,2013-12-21 09:53:00
5:53 AM,55.9,55.0,97,29.78,7.0,South,11.5,-,0.02,Rain,Light Rain,190,2013-12-21 10:53:00
6:53 AM,57.0,55.9,96,29.77,4.0,SSW,11.5,18.4,0.03,Rain,Light Rain,200,2013-12-21 11:53:00
7:53 AM,57.0,55.9,96,29.75,5.0,South,9.2,-,0.05,Rain,Light Rain,180,2013-12-21 12:53:00
8:53 AM,57.9,57.0,97,29.75,4.0,South,16.1,-,0.10,Rain,Light Rain,170,2013-12-21 13:53:00
9:09 AM,57.2,57.2,100,29.75,5.0,South,17.3,24.2,0.02,Rain,Light Rain,170,2013-12-21 14:09:00
9:53 AM,57.9,57.0,97,29.77,4.0,South,16.1,24.2,0.07,Rain,Light Rain,190,2013-12-21 14:53:00
10:09 AM,59.0,57.2,94,29.77,2.5,South,16.1,-,0.04,Rain,Rain,180,2013-12-21 15:09:00
10:17 AM,57.2,57.2,100,29.77,3.0,South,16.1,-,0.06,Rain,Rain,190,2013-12-21 15:17:00
10:53 AM,59.0,57.0,93,29.76,4.0,South,15.0,-,0.13,Rain,Light Rain,190,2013-12-21 15:53:00
11:46 AM,59.0,57.2,94,29.74,2.5,SSW,11.5,-,0.11,Rain,Light Rain,200,2013-12-21 16:46:00
11:53 AM,59.0,57.9,96,29.73,2.5,SSW,9.2,-,0.13,Rain,Light Rain,200,2013-12-21 16:53:00
12:13 PM,59.0,57.2,94,29.73,3.0,SSW,9.2,-,0.03,Rain,Light Rain,200,2013-12-21 17:13:00
12:24 PM,59.0,57.2,94,29.73,2.0,SW,8.1,-,0.06,Rain,Rain,230,2013-12-21 17:24:00
12:28 PM,59.0,57.2,94,29.73,1.8,SW,5.8,-,0.08,Rain,Rain,220,2013-12-21 17:28:00
12:53 PM,59.0,57.9,96,29.71,2.0,SW,6.9,-,0.15,Rain,Rain,220,2013-12-21 17:53:00
1:31 PM,59.0,57.2,94,29.71,1.2,SW,8.1,-,0.11,Rain,Heavy Rain,220,2013-12-21 18:31:00
1:53 PM,57.9,57.9,100,29.70,1.0,SSW,8.1,-,0.20,Rain,Rain,210,2013-12-21 18:53:00
2:14 PM,59.0,59.0,100,29.70,0.8,SSW,9.2,-,0.18,Rain,Heavy Rain,200,2013-12-21 19:14:00
2:22 PM,59.0,59.0,100,29.70,1.5,SSW,6.9,-,0.20,Rain,Rain,210,2013-12-21 19:22:00
2:53 PM,59.0,59.0,100,29.68,2.0,SW,6.9,-,0.31,Rain,Light Rain,220,2013-12-21 19:53:00
3:06 PM,59.0,59.0,100,29.68,6.0,SSW,8.1,-,0.01,Rain,Light Rain,200,2013-12-21 20:06:00
3:53 PM,60.1,60.1,100,29.67,7.0,South,10.4,-,0.01,,Overcast,190,2013-12-21 20:53:00
4:00 PM,60.8,60.8,100,29.68,7.0,South,10.4,-,N/A,,Overcast,190,2013-12-21 21:00:00
4:50 PM,62.6,60.8,94,29.67,8.0,South,13.8,-,0.01,Rain,Light Rain,180,2013-12-21 21:50:00
4:53 PM,62.1,61.0,96,29.67,10.0,South,15.0,21.9,0.01,Rain,Light Rain,180,2013-12-21 21:53:00
5:53 PM,63.0,61.0,93,29.67,10.0,South,13.8,-,0.00,,Clear,190,2013-12-21 22:53:00
6:53 PM,63.0,61.0,93,29.62,10.0,South,10.4,-,0.00,,Overcast,170,2013-12-21 23:53:00
7:29 PM,64.4,62.6,94,29.64,10.0,South,15.0,-,N/A,,Overcast,190,2013-12-22 00:29:00
7:53 PM,64.9,62.1,90,29.61,10.0,South,17.3,26.5,0.01,,Overcast,180,2013-12-22 00:53:00
8:53 PM,64.0,61.0,90,29.53,10.0,South,19.6,32.2,0.00,,Mostly Cloudy,170,2013-12-22 01:53:00
9:53 PM,66.0,62.1,87,29.46,9.0,South,25.3,34.5,0.02,Rain,Light Rain,180,2013-12-22 02:53:00
10:53 PM,64.9,62.1,90,29.50,3.0,SW,23.0,34.5,0.11,Rain,Rain,220,2013-12-22 03:53:00
11:08 PM,62.6,60.8,94,29.52,6.0,WSW,12.7,21.9,0.03,Rain,Light Rain,240,2013-12-22 04:08:00
11:31 PM,62.6,60.8,94,29.55,4.0,SW,10.4,-,0.09,Rain-Thunderstorm,Rain,230,2013-12-22 04:31:00
11:53 PM,62.1,61.0,96,29.56,5.0,SW,11.5,-,0.14,Rain-Thunderstorm,Thunderstorms and Rain,230,2013-12-22 04:53:00
11:57 PM,62.6,60.8,94,29.57,5.0,SW,12.7,-,0.01,Rain,Rain,230,2013-12-22 04:57:00